AFL795 UWWW-UWKD

Flight info

Callsign AFL795
Flight time 0h 32m
Altitude 16000
Route ODRUT2Z ODRUT T793 TONSI TONSI1T
Aircraft A320/M-SDE3FGHIRWY/LB1

Departure

Time 2026-05-07 17:57
Airport Kurumoch International Airport (UWWW)

Arrival

Time 2026-05-07 18:29
Airport Kazan International Airport (UWKD)
Time Latitude Longitude Altitude Speed Heading
2026-05-07 16:48 53.50966 50.15754 447 ft 0 kts 334°
2026-05-07 17:49 53.50967 50.15754 447 ft 1 kts 334°
2026-05-07 17:50 53.50993 50.15733 447 ft 7 kts 338°
2026-05-07 17:50 53.51030 50.15771 447 ft 9 kts 60°
2026-05-07 17:50 53.51070 50.15895 447 ft 15 kts 60°
2026-05-07 17:50 53.51128 50.16070 447 ft 18 kts 61°
2026-05-07 17:51 53.51193 50.16268 447 ft 21 kts 60°
2026-05-07 17:51 53.51265 50.16493 447 ft 23 kts 62°
2026-05-07 17:51 53.51330 50.16691 447 ft 5 kts 61°
2026-05-07 17:51 53.51326 50.16733 447 ft 3 kts 133°
2026-05-07 17:52 53.51286 50.16762 447 ft 12 kts 160°
2026-05-07 17:52 53.51168 50.16832 447 ft 24 kts 160°
2026-05-07 17:52 53.50985 50.16942 442 ft 30 kts 159°
2026-05-07 17:52 53.50784 50.17072 447 ft 32 kts 164°
2026-05-07 17:53 53.50588 50.17177 447 ft 29 kts 159°
2026-05-07 17:53 53.50389 50.17300 447 ft 31 kts 159°
2026-05-07 17:53 53.50321 50.17342 447 ft 32 kts 160°
2026-05-07 17:53 53.50126 50.17459 447 ft 30 kts 160°
2026-05-07 17:54 53.49919 50.17579 447 ft 32 kts 160°
2026-05-07 17:54 53.49701 50.17710 447 ft 34 kts 160°
2026-05-07 17:54 53.49498 50.17830 447 ft 31 kts 161°
2026-05-07 17:54 53.49360 50.17913 447 ft 12 kts 160°
2026-05-07 17:55 53.49296 50.17991 447 ft 11 kts 125°
2026-05-07 17:55 53.49280 50.18108 447 ft 10 kts 80°
2026-05-07 17:55 53.49298 50.18215 439 ft 10 kts 70°
2026-05-07 17:55 53.49341 50.18306 444 ft 11 kts 25°
2026-05-07 17:56 53.49424 50.18296 439 ft 14 kts 340°
2026-05-07 17:56 53.49636 50.18168 436 ft 67 kts 341°
2026-05-07 17:56 53.50308 50.17765 445 ft 135 kts 340°
2026-05-07 17:56 53.51275 50.17195 903 ft 152 kts 343°
2026-05-07 17:57 53.52284 50.16585 1700 ft 153 kts 346°
2026-05-07 17:57 53.52926 50.16188 2324 ft 147 kts 346°
2026-05-07 17:57 53.54231 50.15396 3249 ft 149 kts 345°
2026-05-07 17:57 53.55219 50.14808 3862 ft 156 kts 345°
2026-05-07 17:58 53.56304 50.14177 4232 ft 178 kts 345°
2026-05-07 17:58 53.57561 50.13471 4610 ft 202 kts 345°
2026-05-07 17:58 53.58976 50.12669 5008 ft 227 kts 343°
2026-05-07 17:58 53.60553 50.11756 5539 ft 252 kts 344°
2026-05-07 17:59 53.62325 50.11033 6208 ft 270 kts 349°
2026-05-07 17:59 53.64187 50.10340 7150 ft 276 kts 348°
2026-05-07 17:59 53.66072 50.09629 8188 ft 279 kts 348°
2026-05-07 17:59 53.67970 50.08906 9259 ft 281 kts 348°
2026-05-07 18:00 53.69897 50.08169 10211 ft 289 kts 348°
2026-05-07 18:00 53.71940 50.07389 10603 ft 313 kts 348°
2026-05-07 18:00 53.74116 50.06558 11225 ft 326 kts 348°
2026-05-07 18:00 53.76353 50.05700 12091 ft 332 kts 348°
2026-05-07 18:01 53.78619 50.04829 12985 ft 336 kts 348°
2026-05-07 18:01 53.80914 50.03946 13868 ft 340 kts 348°
2026-05-07 18:01 53.83237 50.03053 14644 ft 345 kts 348°
2026-05-07 18:01 53.85593 50.02146 15425 ft 349 kts 348°
2026-05-07 18:02 53.90368 50.00306 15920 ft 352 kts 348°
2026-05-07 18:02 53.92750 49.99385 15937 ft 351 kts 348°
2026-05-07 18:02 53.95134 49.98464 15946 ft 351 kts 348°
2026-05-07 18:03 53.97514 49.97543 15946 ft 351 kts 348°
2026-05-07 18:03 53.99893 49.96622 15948 ft 351 kts 348°
2026-05-07 18:03 54.02276 49.95698 15951 ft 351 kts 348°
2026-05-07 18:03 54.04658 49.94773 15950 ft 351 kts 348°
2026-05-07 18:04 54.07038 49.93848 15945 ft 351 kts 348°
2026-05-07 18:04 54.09421 49.92921 15948 ft 351 kts 348°
2026-05-07 18:04 54.11802 49.91994 15951 ft 351 kts 348°
2026-05-07 18:04 54.14232 49.91047 15954 ft 371 kts 348°
2026-05-07 18:05 54.16841 49.90032 15952 ft 396 kts 348°
2026-05-07 18:05 54.19545 49.88959 15952 ft 400 kts 347°
2026-05-07 18:05 54.22255 49.87853 15957 ft 401 kts 347°
2026-05-07 18:05 54.24969 49.86746 15954 ft 401 kts 347°
2026-05-07 18:06 54.27690 49.85649 15956 ft 401 kts 347°
2026-05-07 18:06 54.30374 49.84581 15956 ft 402 kts 347°
2026-05-07 18:06 54.33097 49.83509 15961 ft 402 kts 347°
2026-05-07 18:06 54.35826 49.82451 15963 ft 401 kts 348°
2026-05-07 18:07 54.38605 49.81560 15960 ft 401 kts 351°
2026-05-07 18:07 54.41367 49.80858 15966 ft 401 kts 352°
2026-05-07 18:07 54.44144 49.80258 15969 ft 401 kts 353°
2026-05-07 18:07 54.46880 49.79713 15966 ft 401 kts 353°
2026-05-07 18:08 54.49650 49.79149 15964 ft 401 kts 353°
2026-05-07 18:08 54.52425 49.78544 15967 ft 401 kts 352°
2026-05-07 18:08 54.55190 49.77877 15974 ft 401 kts 352°
2026-05-07 18:08 54.57952 49.77166 15972 ft 401 kts 351°
2026-05-07 18:09 54.60712 49.76445 15972 ft 401 kts 351°
2026-05-07 18:09 54.63475 49.75732 15975 ft 401 kts 351°
2026-05-07 18:09 54.66239 49.75032 15971 ft 401 kts 352°
2026-05-07 18:09 54.69000 49.74346 15970 ft 401 kts 352°
2026-05-07 18:10 54.71762 49.73672 15968 ft 401 kts 352°
2026-05-07 18:10 54.74509 49.73000 15972 ft 401 kts 351°
2026-05-07 18:10 54.77176 49.71791 15971 ft 384 kts 341°
2026-05-07 18:10 54.79636 49.70293 15970 ft 365 kts 340°
2026-05-07 18:11 54.81982 49.68832 15973 ft 354 kts 340°
2026-05-07 18:11 54.83507 49.67844 15971 ft 352 kts 339°
2026-05-07 18:11 54.86558 49.65857 15846 ft 346 kts 339°
2026-05-07 18:11 54.88787 49.64432 15596 ft 337 kts 340°
2026-05-07 18:12 54.90976 49.63060 15349 ft 332 kts 340°
2026-05-07 18:12 54.93141 49.61724 15102 ft 330 kts 340°
2026-05-07 18:12 54.95298 49.60403 14861 ft 328 kts 340°
2026-05-07 18:12 54.97443 49.59092 14619 ft 326 kts 340°
2026-05-07 18:13 54.99583 49.57782 14377 ft 325 kts 340°
2026-05-07 18:13 55.01708 49.56479 14139 ft 323 kts 340°
2026-05-07 18:13 55.03823 49.55179 13905 ft 322 kts 340°
2026-05-07 18:13 55.05933 49.53878 13655 ft 321 kts 340°
2026-05-07 18:14 55.08030 49.52583 13388 ft 319 kts 340°
2026-05-07 18:14 55.10120 49.51291 13127 ft 318 kts 340°
2026-05-07 18:14 55.12204 49.50000 12862 ft 317 kts 340°
2026-05-07 18:14 55.14279 49.48712 12598 ft 316 kts 340°
2026-05-07 18:15 55.16316 49.47448 12347 ft 314 kts 340°
2026-05-07 18:15 55.18351 49.46097 12096 ft 313 kts 337°
2026-05-07 18:15 55.20373 49.44581 11711 ft 310 kts 336°
2026-05-07 18:15 55.22328 49.43029 11285 ft 308 kts 335°
2026-05-07 18:16 55.24283 49.41451 10614 ft 307 kts 335°
2026-05-07 18:16 55.26190 49.39914 9970 ft 304 kts 336°
2026-05-07 18:16 55.28087 49.38398 9291 ft 295 kts 336°
2026-05-07 18:16 55.29954 49.36919 8723 ft 283 kts 336°
2026-05-07 18:17 55.31691 49.35551 8918 ft 277 kts 336°
2026-05-07 18:17 55.33454 49.34166 8976 ft 278 kts 336°
2026-05-07 18:17 55.35240 49.32765 8974 ft 278 kts 336°
2026-05-07 18:17 55.36982 49.31397 8975 ft 277 kts 336°
2026-05-07 18:18 55.38746 49.30011 8978 ft 277 kts 336°
2026-05-07 18:18 55.40526 49.28610 8978 ft 277 kts 336°
2026-05-07 18:18 55.42265 49.27238 8941 ft 276 kts 336°
2026-05-07 18:18 55.44009 49.25860 8542 ft 274 kts 336°
2026-05-07 18:19 55.45760 49.24476 7824 ft 282 kts 336°
2026-05-07 18:19 55.47583 49.23054 7136 ft 289 kts 337°
2026-05-07 18:19 55.49398 49.21550 6615 ft 289 kts 329°
2026-05-07 18:19 55.50952 49.19322 6130 ft 288 kts 312°
2026-05-07 18:20 55.52143 49.16563 5959 ft 275 kts 307°
2026-05-07 18:20 55.53236 49.13930 5970 ft 260 kts 307°
2026-05-07 18:20 55.54299 49.11365 5973 ft 258 kts 307°
2026-05-07 18:20 55.55359 49.08810 5974 ft 257 kts 307°
2026-05-07 18:21 55.56429 49.06266 5937 ft 258 kts 308°
2026-05-07 18:21 55.57505 49.03737 5817 ft 257 kts 308°
2026-05-07 18:21 55.58577 49.01200 5596 ft 258 kts 307°
2026-05-07 18:21 55.59641 48.98662 5217 ft 256 kts 307°
2026-05-07 18:22 55.60694 48.96132 4804 ft 255 kts 307°
2026-05-07 18:22 55.61048 48.95278 4672 ft 254 kts 307°
2026-05-07 18:22 55.63212 48.92269 4015 ft 234 kts 350°
2026-05-07 18:22 55.64767 48.92519 3779 ft 222 kts 22°
2026-05-07 18:23 55.66069 48.93912 3568 ft 217 kts 34°
2026-05-07 18:23 55.67305 48.95405 3352 ft 213 kts 35°
2026-05-07 18:23 55.68471 48.96987 3136 ft 209 kts 47°
2026-05-07 18:23 55.69286 48.99063 2925 ft 203 kts 67°
2026-05-07 18:24 55.69579 49.00609 2841 ft 196 kts 80°
2026-05-07 18:24 55.69598 49.03558 2714 ft 165 kts 103°
2026-05-07 18:24 55.69399 49.04774 2722 ft 148 kts 113°
2026-05-07 18:24 55.68934 49.06327 2696 ft 139 kts 126°
2026-05-07 18:25 55.68396 49.07725 2594 ft 136 kts 126°
2026-05-07 18:25 55.67869 49.09095 2449 ft 134 kts 126°
2026-05-07 18:25 55.67350 49.10448 2312 ft 132 kts 126°
2026-05-07 18:25 55.66833 49.11803 2179 ft 132 kts 125°
2026-05-07 18:26 55.66326 49.13155 1980 ft 132 kts 124°
2026-05-07 18:26 55.65806 49.14477 1755 ft 129 kts 127°
2026-05-07 18:26 55.65288 49.15766 1571 ft 127 kts 125°
2026-05-07 18:26 55.64786 49.17059 1402 ft 128 kts 123°
2026-05-07 18:27 55.64288 49.18397 1254 ft 132 kts 123°
2026-05-07 18:27 55.63770 49.19763 1101 ft 134 kts 124°
2026-05-07 18:27 55.63238 49.21110 947 ft 133 kts 124°
2026-05-07 18:27 55.62719 49.22472 755 ft 134 kts 123°
2026-05-07 18:28 55.62193 49.23829 584 ft 133 kts 124°
2026-05-07 18:28 55.61679 49.25165 432 ft 130 kts 124°
2026-05-07 18:28 55.61226 49.26324 413 ft 92 kts 124°
2026-05-07 18:28 55.60940 49.27062 413 ft 61 kts 124°
2026-05-07 18:29 55.60723 49.27620 412 ft 49 kts 125°
2026-05-07 18:29 55.60547 49.28074 415 ft 42 kts 124°
2026-05-07 18:29 55.60421 49.28394 414 ft 27 kts 124°
2026-05-07 18:29 55.60389 49.28498 418 ft 8 kts 104°
2026-05-07 18:30 55.60407 49.28587 414 ft 10 kts 47°
2026-05-07 18:30 55.60480 49.28688 416 ft 8 kts 34°
2026-05-07 18:30 55.60497 49.28708 413 ft 0 kts 34°
2026-05-07 18:32 55.60514 49.28729 416 ft 6 kts 36°
2026-05-07 18:33 55.60570 49.28801 416 ft 13 kts 47°
2026-05-07 18:33 55.60577 49.28977 416 ft 16 kts 94°
2026-05-07 18:33 55.60583 49.29131 416 ft 13 kts 57°
2026-05-07 18:33 55.60661 49.29243 416 ft 17 kts 35°
2026-05-07 18:34 55.60731 49.29332 416 ft 5 kts 36°
2026-05-07 18:34 55.60733 49.29334 416 ft 0 kts 36°
2026-05-07 18:34 55.60740 49.29357 408 ft 3 kts 75°
2026-05-07 18:34 55.60720 49.29416 414 ft 7 kts 124°
2026-05-07 18:35 55.60695 49.29481 409 ft 6 kts 124°
2026-05-07 18:35 55.60674 49.29538 416 ft 5 kts 111°
2026-05-07 18:35 55.60688 49.29571 416 ft 3 kts 30°
2026-05-07 18:35 55.60708 49.29595 412 ft 2 kts 34°
2026-05-07 18:36 55.60710 49.29597 412 ft 0 kts 34°